Time,TemperatureF,DewpointF,PressureIn,WindDirection,WindDirectionDegrees,WindSpeedMPH,WindSpeedGustMPH,Humidity,HourlyPrecipIn,Conditions,Clouds,dailyrainin,SoftwareType,DateUTC
2013-01-11 00:01:00,38.7,-99.9,29.82,SSW,205,6.0,6.0,54,0.00,,,-99.99,Misterhouse,2013-01-11 06:01:00,
2013-01-11 00:06:00,38.5,-99.9,29.82,SSE,157,5.0,5.0,54,0.00,,,-99.99,Misterhouse,2013-01-11 06:06:00,
2013-01-11 00:11:00,38.5,-99.9,29.82,SSE,168,5.0,5.0,54,0.00,,,-99.99,Misterhouse,2013-01-11 06:11:00,
2013-01-11 00:16:00,38.7,-99.9,29.82,South,174,4.0,5.0,54,0.00,,,-99.99,Misterhouse,2013-01-11 06:16:00,
2013-01-11 00:21:00,38.5,-99.9,29.82,South,169,3.0,4.0,54,0.00,,,-99.99,Misterhouse,2013-01-11 06:21:00,
2013-01-11 00:26:00,38.5,-99.9,29.82,South,181,3.0,3.0,54,0.00,,,-99.99,Misterhouse,2013-01-11 06:26:00,
2013-01-11 00:31:00,38.5,-99.9,29.82,SSW,192,5.0,5.0,54,0.00,,,-99.99,Misterhouse,2013-01-11 06:31:00,
2013-01-11 00:36:00,38.5,-99.9,29.82,South,175,6.0,6.0,54,0.00,,,-99.99,Misterhouse,2013-01-11 06:36:00,
2013-01-11 00:41:00,38.5,-99.9,29.82,South,191,4.0,5.0,54,0.00,,,-99.99,Misterhouse,2013-01-11 06:41:00,
2013-01-11 00:46:00,38.3,-99.9,29.82,South,184,5.0,6.0,54,0.00,,,-99.99,Misterhouse,2013-01-11 06:46:00,
2013-01-11 00:51:00,38.3,-99.9,29.82,SSW,194,4.0,4.0,54,0.00,,,-99.99,Misterhouse,2013-01-11 06:51:00,
2013-01-11 00:56:00,38.1,-99.9,29.82,South,180,3.0,4.0,54,0.00,,,-99.99,Misterhouse,2013-01-11 06:56:00,
2013-01-11 01:01:00,38.1,-99.9,29.82,SSW,208,4.0,4.0,54,0.00,,,-99.99,Misterhouse,2013-01-11 07:01:00,
2013-01-11 01:06:00,38.1,-99.9,29.82,SSW,199,3.0,4.0,54,0.00,,,-99.99,Misterhouse,2013-01-11 07:06:00,
2013-01-11 01:11:00,38.1,-99.9,29.82,SSW,205,3.0,3.0,54,0.00,,,-99.99,Misterhouse,2013-01-11 07:11:00,
2013-01-11 01:16:00,38.1,-99.9,29.79,SSW,206,0.0,0.0,54,0.00,,,-99.99,Misterhouse,2013-01-11 07:16:00,
2013-01-11 01:21:00,38.1,-99.9,29.79,South,187,4.0,0.0,54,0.00,,,-99.99,Misterhouse,2013-01-11 07:21:00,
2013-01-11 01:26:00,37.9,-99.9,29.79,SSW,195,3.0,3.0,54,0.00,,,-99.99,Misterhouse,2013-01-11 07:26:00,
2013-01-11 01:31:00,37.9,-99.9,29.79,SSW,211,3.0,4.0,54,0.00,,,-99.99,Misterhouse,2013-01-11 07:31:00,
2013-01-11 01:36:00,37.9,-99.9,29.79,South,178,4.0,4.0,54,0.00,,,-99.99,Misterhouse,2013-01-11 07:36:00,
2013-01-11 01:41:00,37.9,-99.9,29.79,South,183,4.0,4.0,54,0.00,,,-99.99,Misterhouse,2013-01-11 07:41:00,
2013-01-11 01:46:00,37.9,-99.9,29.79,SSW,202,4.0,4.0,54,0.00,,,-99.99,Misterhouse,2013-01-11 07:46:00,
2013-01-11 01:51:00,37.9,-99.9,29.79,SSW,197,3.0,4.0,54,0.00,,,-99.99,Misterhouse,2013-01-11 07:51:00,
2013-01-11 01:56:00,37.8,-99.9,29.79,South,185,3.0,4.0,54,0.00,,,-99.99,Misterhouse,2013-01-11 07:56:00,
2013-01-11 02:01:00,37.6,-99.9,29.79,SSW,192,3.0,3.0,54,0.00,,,-99.99,Misterhouse,2013-01-11 08:01:00,
2013-01-11 02:06:00,37.6,-99.9,29.79,SSW,192,2.0,3.0,54,0.00,,,-99.99,Misterhouse,2013-01-11 08:06:00,
2013-01-11 02:11:00,37.6,-99.9,29.79,SSW,192,3.0,4.0,54,0.00,,,-99.99,Misterhouse,2013-01-11 08:11:00,
2013-01-11 02:16:00,37.4,-99.9,29.79,SSW,212,4.0,4.0,54,0.00,,,-99.99,Misterhouse,2013-01-11 08:16:00,
2013-01-11 02:21:00,37.4,-99.9,29.79,SSW,200,3.0,5.0,54,0.00,,,-99.99,Misterhouse,2013-01-11 08:21:00,
2013-01-11 02:26:00,37.4,-99.9,29.79,SSW,200,0.0,0.0,54,0.00,,,-99.99,Misterhouse,2013-01-11 08:26:00,
2013-01-11 02:31:00,37.2,-99.9,29.79,South,179,0.0,4.0,54,0.00,,,-99.99,Misterhouse,2013-01-11 08:31:00,
2013-01-11 02:36:00,37.2,-99.9,29.79,South,179,3.0,4.0,54,0.00,,,-99.99,Misterhouse,2013-01-11 08:36:00,
2013-01-11 02:41:00,37.2,-99.9,29.79,South,179,3.0,3.0,54,0.00,,,-99.99,Misterhouse,2013-01-11 08:41:00,
2013-01-11 02:46:00,37.2,-99.9,29.79,SSW,195,4.0,5.0,54,0.00,,,-99.99,Misterhouse,2013-01-11 08:46:00,
2013-01-11 02:51:00,37.2,-99.9,29.79,SSW,193,3.0,3.0,54,0.00,,,-99.99,Misterhouse,2013-01-11 08:51:00,
2013-01-11 02:56:00,37.0,-99.9,29.79,SSW,193,0.0,0.0,54,0.00,,,-99.99,Misterhouse,2013-01-11 08:56:00,
2013-01-11 03:01:00,37.0,-99.9,29.79,SSW,197,3.0,4.0,54,0.00,,,-99.99,Misterhouse,2013-01-11 09:01:00,
2013-01-11 03:06:00,37.0,-99.9,29.79,South,170,4.0,4.0,54,0.00,,,-99.99,Misterhouse,2013-01-11 09:06:00,
2013-01-11 03:11:00,37.0,-99.9,29.79,SSW,199,3.0,3.0,54,0.00,,,-99.99,Misterhouse,2013-01-11 09:11:00,
2013-01-11 03:16:00,37.2,-99.9,29.76,SSW,199,2.0,4.0,54,0.00,,,-99.99,Misterhouse,2013-01-11 09:16:00,
2013-01-11 03:21:00,37.4,-99.9,29.76,SW,218,3.0,4.0,54,0.00,,,-99.99,Misterhouse,2013-01-11 09:21:00,
2013-01-11 03:26:00,37.4,-99.9,29.76,SW,223,4.0,4.0,54,0.00,,,-99.99,Misterhouse,2013-01-11 09:26:00,
2013-01-11 03:31:00,37.4,-99.9,29.76,SW,223,3.0,3.0,54,0.00,,,-99.99,Misterhouse,2013-01-11 09:31:00,
2013-01-11 03:36:00,37.4,-99.9,29.76,SSW,202,3.0,4.0,54,0.00,,,-99.99,Misterhouse,2013-01-11 09:36:00,
2013-01-11 03:41:00,37.6,-99.9,29.76,SSW,205,3.0,4.0,54,0.00,,,-99.99,Misterhouse,2013-01-11 09:41:00,
2013-01-11 03:46:00,37.6,-99.9,29.76,SSW,200,4.0,5.0,54,0.00,,,-99.99,Misterhouse,2013-01-11 09:46:00,
2013-01-11 03:51:00,37.8,-99.9,29.76,SSW,203,4.0,4.0,54,0.00,,,-99.99,Misterhouse,2013-01-11 09:51:00,
2013-01-11 03:56:00,37.9,-99.9,29.76,South,190,3.0,3.0,54,0.00,,,-99.99,Misterhouse,2013-01-11 09:56:00,
2013-01-11 04:01:00,37.9,-99.9,29.76,South,177,3.0,3.0,54,0.00,,,-99.99,Misterhouse,2013-01-11 10:01:00,
2013-01-11 04:06:00,38.1,-99.9,29.76,South,171,4.0,4.0,54,0.00,,,-99.99,Misterhouse,2013-01-11 10:06:00,
2013-01-11 04:11:00,38.1,-99.9,29.76,SSE,163,4.0,4.0,54,0.00,,,-99.99,Misterhouse,2013-01-11 10:11:00,
2013-01-11 04:16:00,38.1,-99.9,29.73,SSE,151,4.0,4.0,54,0.00,,,-99.99,Misterhouse,2013-01-11 10:16:00,
2013-01-11 04:22:00,38.3,-99.9,29.73,SSE,152,5.0,5.0,54,0.00,,,-99.99,Misterhouse,2013-01-11 10:22:00,
2013-01-11 04:27:00,38.3,-99.9,29.73,SSE,155,3.0,5.0,54,0.00,,,-99.99,Misterhouse,2013-01-11 10:27:00,
2013-01-11 04:33:00,38.5,-99.9,29.73,SSE,151,4.0,4.0,54,0.00,,,-99.99,Misterhouse,2013-01-11 10:33:00,
2013-01-11 04:38:00,38.5,-99.9,29.73,SSE,151,3.0,3.0,54,0.00,,,-99.99,Misterhouse,2013-01-11 10:38:00,
2013-01-11 04:43:00,38.7,-99.9,29.73,SSE,152,4.0,6.0,54,0.00,,,-99.99,Misterhouse,2013-01-11 10:43:00,
2013-01-11 04:48:00,38.8,-99.9,29.70,South,178,3.0,5.0,54,0.00,,,-99.99,Misterhouse,2013-01-11 10:48:00,
2013-01-11 04:53:00,38.8,-99.9,29.70,South,187,4.0,4.0,54,0.00,,,-99.99,Misterhouse,2013-01-11 10:53:00,
2013-01-11 04:58:00,38.8,-99.9,29.70,South,174,5.0,5.0,54,0.00,,,-99.99,Misterhouse,2013-01-11 10:58:00,
2013-01-11 05:03:00,39.0,-99.9,29.70,South,179,3.0,3.0,54,0.00,,,-99.99,Misterhouse,2013-01-11 11:03:00,
2013-01-11 05:09:00,39.2,-99.9,29.70,SSE,157,4.0,6.0,54,0.00,,,-99.99,Misterhouse,2013-01-11 11:09:00,
2013-01-11 05:14:00,39.2,-99.9,29.70,SSE,153,4.0,4.0,54,0.00,,,-99.99,Misterhouse,2013-01-11 11:14:00,
2013-01-11 05:19:00,39.4,-99.9,29.70,SSE,164,3.0,3.0,54,0.00,,,-99.99,Misterhouse,2013-01-11 11:19:00,
2013-01-11 05:24:00,39.6,-99.9,29.70,South,173,6.0,6.0,54,0.00,,,-99.99,Misterhouse,2013-01-11 11:24:00,
2013-01-11 05:29:00,39.7,-99.9,29.70,South,170,5.0,5.0,54,0.00,,,-99.99,Misterhouse,2013-01-11 11:29:00,
2013-01-11 05:34:00,39.9,-99.9,29.70,SSE,167,4.0,5.0,54,0.00,,,-99.99,Misterhouse,2013-01-11 11:34:00,
2013-01-11 05:39:00,39.7,-99.9,29.70,SSE,161,4.0,4.0,54,0.00,,,-99.99,Misterhouse,2013-01-11 11:39:00,
2013-01-11 05:44:00,39.9,-99.9,29.70,SSE,156,4.0,6.0,54,0.00,,,-99.99,Misterhouse,2013-01-11 11:44:00,
2013-01-11 05:49:00,39.9,-99.9,29.70,SSE,162,5.0,5.0,54,0.00,,,-99.99,Misterhouse,2013-01-11 11:49:00,
2013-01-11 05:54:00,39.9,-99.9,29.70,SSE,159,6.0,6.0,54,0.00,,,-99.99,Misterhouse,2013-01-11 11:54:00,
2013-01-11 05:59:00,39.9,-99.9,29.70,South,170,5.0,6.0,54,0.00,,,-99.99,Misterhouse,2013-01-11 11:59:00,
2013-01-11 06:04:00,40.1,-99.9,29.70,South,172,6.0,6.0,54,0.00,,,-99.99,Misterhouse,2013-01-11 12:04:00,
2013-01-11 06:09:00,40.1,-99.9,29.70,SSE,152,5.0,5.0,54,0.00,,,-99.99,Misterhouse,2013-01-11 12:09:00,
2013-01-11 06:14:00,40.3,-99.9,29.67,SSE,160,6.0,6.0,54,0.00,,,-99.99,Misterhouse,2013-01-11 12:14:00,
2013-01-11 06:19:00,40.3,-99.9,29.67,SSE,147,4.0,7.0,54,0.00,,,-99.99,Misterhouse,2013-01-11 12:19:00,
2013-01-11 06:24:00,40.5,-99.9,29.67,South,172,5.0,5.0,54,0.00,,,-99.99,Misterhouse,2013-01-11 12:24:00,
2013-01-11 06:29:00,40.6,-99.9,29.67,SSE,165,6.0,6.0,54,0.00,,,-99.99,Misterhouse,2013-01-11 12:29:00,
2013-01-11 06:35:00,40.6,-99.9,29.67,SSE,152,5.0,6.0,54,0.00,,,-99.99,Misterhouse,2013-01-11 12:35:00,
2013-01-11 06:40:00,40.8,-99.9,29.67,South,186,4.0,6.0,54,0.00,,,-99.99,Misterhouse,2013-01-11 12:40:00,
2013-01-11 06:45:00,41.0,-99.9,29.67,South,177,4.0,6.0,54,0.00,,,-99.99,Misterhouse,2013-01-11 12:45:00,
2013-01-11 06:50:00,41.0,-99.9,29.67,South,172,4.0,5.0,54,0.00,,,-99.99,Misterhouse,2013-01-11 12:50:00,
2013-01-11 06:55:00,41.0,-99.9,29.67,South,178,4.0,6.0,54,0.00,,,-99.99,Misterhouse,2013-01-11 12:55:00,
2013-01-11 07:00:00,41.0,-99.9,29.67,SSE,158,5.0,5.0,54,0.00,,,-99.99,Misterhouse,2013-01-11 13:00:00,
2013-01-11 07:05:00,41.0,-99.9,29.67,SSW,198,5.0,8.0,54,0.00,,,-99.99,Misterhouse,2013-01-11 13:05:00,
2013-01-11 07:10:00,41.2,-99.9,29.67,SSE,150,6.0,8.0,54,0.00,,,-99.99,Misterhouse,2013-01-11 13:10:00,
2013-01-11 07:15:00,41.2,-99.9,29.67,South,172,5.0,5.0,54,0.00,,,-99.99,Misterhouse,2013-01-11 13:15:00,
2013-01-11 07:20:00,41.2,-99.9,29.67,South,173,5.0,6.0,54,0.00,,,-99.99,Misterhouse,2013-01-11 13:20:00,
2013-01-11 07:25:00,41.4,-99.9,29.67,SSE,154,4.0,6.0,54,0.00,,,-99.99,Misterhouse,2013-01-11 13:25:00,
2013-01-11 07:30:00,41.2,-99.9,29.67,South,171,5.0,7.0,54,0.00,,,-99.99,Misterhouse,2013-01-11 13:30:00,
2013-01-11 07:35:00,41.2,-99.9,29.67,SSE,166,6.0,6.0,54,0.00,,,-99.99,Misterhouse,2013-01-11 13:35:00,
2013-01-11 07:40:00,41.5,-99.9,29.67,SSE,155,6.0,8.0,54,0.00,,,-99.99,Misterhouse,2013-01-11 13:40:00,
2013-01-11 07:45:00,41.5,-99.9,29.67,SSE,154,8.0,8.0,54,0.00,,,-99.99,Misterhouse,2013-01-11 13:45:00,
2013-01-11 07:50:00,41.4,-99.9,29.67,SSE,162,6.0,8.0,54,0.00,,,-99.99,Misterhouse,2013-01-11 13:50:00,
2013-01-11 07:55:00,41.2,-99.9,29.67,SSE,148,5.0,7.0,54,0.00,,,-99.99,Misterhouse,2013-01-11 13:55:00,
2013-01-11 08:00:00,41.4,-99.9,29.67,SSE,164,5.0,6.0,54,0.00,,,-99.99,Misterhouse,2013-01-11 14:00:00,
2013-01-11 08:05:00,41.5,-99.9,29.67,SSE,165,5.0,6.0,54,0.00,,,-99.99,Misterhouse,2013-01-11 14:05:00,
2013-01-11 08:10:00,41.5,-99.9,29.67,South,174,7.0,7.0,54,0.00,,,-99.99,Misterhouse,2013-01-11 14:10:00,
2013-01-11 08:15:00,41.5,-99.9,29.67,South,190,6.0,10.0,54,0.00,,,-99.99,Misterhouse,2013-01-11 14:15:00,
2013-01-11 08:20:00,41.9,-99.9,29.67,South,181,8.0,10.0,54,0.00,,,-99.99,Misterhouse,2013-01-11 14:20:00,
2013-01-11 08:25:00,42.1,-99.9,29.67,South,171,5.0,8.0,54,0.00,,,-99.99,Misterhouse,2013-01-11 14:25:00,
2013-01-11 08:30:00,42.1,-99.9,29.67,South,187,5.0,9.0,54,0.00,,,-99.99,Misterhouse,2013-01-11 14:30:00,
2013-01-11 08:35:00,42.3,-99.9,29.67,SSE,162,7.0,7.0,54,0.00,,,-99.99,Misterhouse,2013-01-11 14:35:00,
2013-01-11 08:41:00,42.3,-99.9,29.67,South,179,6.0,6.0,54,0.00,,,-99.99,Misterhouse,2013-01-11 14:41:00,
2013-01-11 08:46:00,42.4,-99.9,29.64,South,177,6.0,6.0,54,0.00,,,-99.99,Misterhouse,2013-01-11 14:46:00,
2013-01-11 08:51:00,42.4,-99.9,29.64,South,177,5.0,6.0,54,0.00,,,-99.99,Misterhouse,2013-01-11 14:51:00,
2013-01-11 08:56:00,42.6,-99.9,29.64,SSE,163,4.0,6.0,54,0.00,,,-99.99,Misterhouse,2013-01-11 14:56:00,
2013-01-11 09:01:00,42.8,-99.9,29.64,South,170,5.0,6.0,54,0.00,,,-99.99,Misterhouse,2013-01-11 15:01:00,
2013-01-11 09:06:00,42.8,-99.9,29.64,SSW,206,4.0,8.0,54,0.00,,,-99.99,Misterhouse,2013-01-11 15:06:00,
2013-01-11 09:11:00,42.8,-99.9,29.64,South,190,6.0,7.0,54,0.00,,,-99.99,Misterhouse,2013-01-11 15:11:00,
2013-01-11 09:16:00,43.0,-99.9,29.64,South,181,6.0,9.0,54,0.00,,,-99.99,Misterhouse,2013-01-11 15:16:00,
2013-01-11 09:21:00,43.2,-99.9,29.64,South,183,6.0,8.0,54,0.00,,,-99.99,Misterhouse,2013-01-11 15:21:00,
2013-01-11 09:26:00,43.5,-99.9,29.64,South,176,6.0,8.0,54,0.00,,,-99.99,Misterhouse,2013-01-11 15:26:00,
2013-01-11 09:31:00,43.7,-99.9,29.64,South,171,7.0,8.0,54,0.00,,,-99.99,Misterhouse,2013-01-11 15:31:00,
2013-01-11 09:36:00,43.9,-99.9,29.64,South,176,5.0,5.0,54,0.00,,,-99.99,Misterhouse,2013-01-11 15:36:00,
2013-01-11 09:41:00,44.1,-99.9,29.64,South,171,7.0,7.0,54,0.00,,,-99.99,Misterhouse,2013-01-11 15:41:00,
2013-01-11 09:46:00,44.2,-99.9,29.64,South,175,8.0,8.0,54,0.00,,,-99.99,Misterhouse,2013-01-11 15:46:00,
2013-01-11 09:51:00,44.2,-99.9,29.64,South,182,4.0,5.0,54,0.00,,,-99.99,Misterhouse,2013-01-11 15:51:00,
2013-01-11 09:56:00,44.4,-99.9,29.64,South,188,6.0,8.0,54,0.00,,,-99.99,Misterhouse,2013-01-11 15:56:00,
2013-01-11 10:01:00,44.6,-99.9,29.64,SSW,202,6.0,6.0,54,0.00,,,-99.99,Misterhouse,2013-01-11 16:01:00,
2013-01-11 10:06:00,44.8,-99.9,29.64,South,173,6.0,6.0,54,0.00,,,-99.99,Misterhouse,2013-01-11 16:06:00,
2013-01-11 10:11:00,44.8,-99.9,29.64,SSW,209,4.0,6.0,54,0.00,,,-99.99,Misterhouse,2013-01-11 16:11:00,
2013-01-11 10:16:00,44.8,-99.9,29.61,SSW,207,6.0,6.0,54,0.00,,,-99.99,Misterhouse,2013-01-11 16:16:00,
2013-01-11 10:21:00,44.8,-99.9,29.61,SSW,199,6.0,9.0,54,0.00,,,-99.99,Misterhouse,2013-01-11 16:21:00,
2013-01-11 10:26:00,44.8,-99.9,29.61,SSW,197,8.0,8.0,54,0.00,,,-99.99,Misterhouse,2013-01-11 16:26:00,
2013-01-11 10:31:00,45.0,-99.9,29.61,SSW,198,8.0,10.0,54,0.00,,,-99.99,Misterhouse,2013-01-11 16:31:00,
2013-01-11 10:36:00,45.0,-99.9,29.61,SSW,192,4.0,11.0,54,0.00,,,-99.99,Misterhouse,2013-01-11 16:36:00,
2013-01-11 10:41:00,45.1,-99.9,29.61,South,190,7.0,8.0,54,0.00,,,-99.99,Misterhouse,2013-01-11 16:41:00,
2013-01-11 10:46:00,45.1,-99.9,29.61,SSW,193,7.0,7.0,54,0.00,,,-99.99,Misterhouse,2013-01-11 16:46:00,
2013-01-11 10:51:00,45.3,-99.9,29.61,South,180,6.0,6.0,54,0.00,,,-99.99,Misterhouse,2013-01-11 16:51:00,
2013-01-11 10:56:00,45.3,-99.9,29.61,SSW,209,4.0,5.0,53,0.00,,,-99.99,Misterhouse,2013-01-11 16:56:00,
2013-01-11 11:01:00,45.3,-99.9,29.61,SSW,194,7.0,8.0,53,0.00,,,-99.99,Misterhouse,2013-01-11 17:01:00,
2013-01-11 11:06:00,45.5,-99.9,29.61,WSW,244,6.0,6.0,53,0.00,,,-99.99,Misterhouse,2013-01-11 17:06:00,
2013-01-11 11:11:00,45.5,-99.9,29.61,South,183,6.0,6.0,53,0.00,,,-99.99,Misterhouse,2013-01-11 17:11:00,
2013-01-11 11:16:00,45.5,-99.9,29.61,SSE,161,9.0,9.0,53,0.00,,,-99.99,Misterhouse,2013-01-11 17:16:00,
2013-01-11 11:21:00,45.7,-99.9,29.61,South,183,10.0,10.0,53,0.00,,,-99.99,Misterhouse,2013-01-11 17:21:00,
2013-01-11 11:26:00,45.7,-99.9,29.61,SSW,211,12.0,12.0,52,0.00,,,-99.99,Misterhouse,2013-01-11 17:26:00,
2013-01-11 11:31:00,45.9,-99.9,29.61,SSW,202,8.0,9.0,50,0.00,,,-99.99,Misterhouse,2013-01-11 17:31:00,
2013-01-11 11:36:00,45.9,-99.9,29.61,South,190,9.0,11.0,47,0.00,,,-99.99,Misterhouse,2013-01-11 17:36:00,
2013-01-11 11:41:00,46.0,-99.9,29.61,South,191,12.0,12.0,45,0.00,,,-99.99,Misterhouse,2013-01-11 17:41:00,
2013-01-11 11:46:00,46.0,-99.9,29.58,SSW,202,8.0,12.0,43,0.00,,,-99.99,Misterhouse,2013-01-11 17:46:00,
2013-01-11 11:51:00,46.4,-99.9,29.58,SSW,197,11.0,13.0,41,0.00,,,-99.99,Misterhouse,2013-01-11 17:51:00,
2013-01-11 11:56:00,46.8,-99.9,29.58,South,185,10.0,15.0,40,0.00,,,-99.99,Misterhouse,2013-01-11 17:56:00,
2013-01-11 12:01:00,47.1,-99.9,29.58,South,190,13.0,15.0,39,0.00,,,-99.99,Misterhouse,2013-01-11 18:01:00,
2013-01-11 12:06:00,47.5,-99.9,29.58,SSW,197,11.0,11.0,39,0.00,,,-99.99,Misterhouse,2013-01-11 18:06:00,
2013-01-11 12:11:00,47.7,-99.9,29.58,SSW,197,9.0,13.0,38,0.00,,,-99.99,Misterhouse,2013-01-11 18:11:00,
2013-01-11 12:16:00,47.8,-99.9,29.55,South,175,7.0,10.0,38,0.00,,,-99.99,Misterhouse,2013-01-11 18:16:00,
2013-01-11 12:21:00,48.0,-99.9,29.55,South,182,12.0,12.0,38,0.00,,,-99.99,Misterhouse,2013-01-11 18:21:00,
2013-01-11 12:26:00,48.2,-99.9,29.55,SSW,204,11.0,11.0,37,0.00,,,-99.99,Misterhouse,2013-01-11 18:26:00,
2013-01-11 12:31:00,48.4,-99.9,29.55,South,169,8.0,10.0,37,0.00,,,-99.99,Misterhouse,2013-01-11 18:31:00,
2013-01-11 12:36:00,48.6,-99.9,29.55,SSW,201,8.0,13.0,37,0.00,,,-99.99,Misterhouse,2013-01-11 18:36:00,
2013-01-11 12:41:00,48.9,-99.9,29.55,South,180,8.0,10.0,37,0.00,,,-99.99,Misterhouse,2013-01-11 18:41:00,
2013-01-11 12:46:00,49.3,-99.9,29.55,South,170,10.0,10.0,36,0.00,,,-99.99,Misterhouse,2013-01-11 18:46:00,
2013-01-11 12:51:00,49.8,-99.9,29.55,SSW,202,8.0,8.0,35,0.00,,,-99.99,Misterhouse,2013-01-11 18:51:00,
2013-01-11 12:56:00,50.0,-99.9,29.55,SSW,192,7.0,13.0,33,0.00,,,-99.99,Misterhouse,2013-01-11 18:56:00,
2013-01-11 13:01:00,50.4,-99.9,29.55,South,187,9.0,10.0,31,0.00,,,-99.99,Misterhouse,2013-01-11 19:01:00,
2013-01-11 13:06:00,50.5,-99.9,29.55,SSW,203,11.0,12.0,30,0.00,,,-99.99,Misterhouse,2013-01-11 19:06:00,
2013-01-11 13:11:00,50.9,-99.9,29.55,South,185,9.0,9.0,30,0.00,,,-99.99,Misterhouse,2013-01-11 19:11:00,
2013-01-11 13:16:00,51.3,-99.9,29.55,SSW,208,10.0,10.0,29,0.00,,,-99.99,Misterhouse,2013-01-11 19:16:00,
2013-01-11 13:21:00,51.4,-99.9,29.55,SSW,205,13.0,13.0,28,0.00,,,-99.99,Misterhouse,2013-01-11 19:21:00,
2013-01-11 13:26:00,51.8,-99.9,29.55,SSW,197,10.0,11.0,28,0.00,,,-99.99,Misterhouse,2013-01-11 19:26:00,
2013-01-11 13:31:00,52.0,-99.9,29.52,SSW,212,11.0,13.0,27,0.00,,,-99.99,Misterhouse,2013-01-11 19:31:00,
2013-01-11 13:36:00,51.8,-99.9,29.52,SSW,201,13.0,13.0,27,0.00,,,-99.99,Misterhouse,2013-01-11 19:36:00,
2013-01-11 13:41:00,51.6,-99.9,29.52,SSW,196,12.0,12.0,28,0.00,,,-99.99,Misterhouse,2013-01-11 19:41:00,
2013-01-11 13:46:00,51.6,-99.9,29.52,South,184,12.0,12.0,28,0.00,,,-99.99,Misterhouse,2013-01-11 19:46:00,
2013-01-11 13:51:00,51.6,-99.9,29.52,SSW,200,9.0,12.0,28,0.00,,,-99.99,Misterhouse,2013-01-11 19:51:00,
2013-01-11 13:57:00,51.4,-99.9,29.52,South,177,15.0,15.0,28,0.00,,,-99.99,Misterhouse,2013-01-11 19:57:00,
2013-01-11 14:02:00,51.3,-99.9,29.52,South,176,13.0,17.0,28,0.00,,,-99.99,Misterhouse,2013-01-11 20:02:00,
2013-01-11 14:07:00,51.3,-99.9,29.52,South,183,13.0,22.0,28,0.00,,,-99.99,Misterhouse,2013-01-11 20:07:00,
2013-01-11 14:12:00,51.3,-99.9,29.52,SSW,208,10.0,15.0,28,0.00,,,-99.99,Misterhouse,2013-01-11 20:12:00,
2013-01-11 14:17:00,51.1,-99.9,29.55,SSW,193,11.0,15.0,28,0.00,,,-99.99,Misterhouse,2013-01-11 20:17:00,
2013-01-11 14:22:00,51.1,-99.9,29.55,SSW,210,14.0,15.0,28,0.00,,,-99.99,Misterhouse,2013-01-11 20:22:00,
2013-01-11 14:27:00,51.1,-99.9,29.55,South,179,10.0,10.0,28,0.00,,,-99.99,Misterhouse,2013-01-11 20:27:00,
2013-01-11 14:32:00,50.7,-99.9,29.52,South,183,12.0,12.0,28,0.00,,,-99.99,Misterhouse,2013-01-11 20:32:00,
2013-01-11 14:37:00,50.7,-99.9,29.52,SSW,209,10.0,10.0,27,0.00,,,-99.99,Misterhouse,2013-01-11 20:37:00,
2013-01-11 14:42:00,50.7,-99.9,29.52,SW,214,12.0,13.0,27,0.00,,,-99.99,Misterhouse,2013-01-11 20:42:00,
2013-01-11 14:47:00,50.7,-99.9,29.52,SSW,192,14.0,14.0,27,0.00,,,-99.99,Misterhouse,2013-01-11 20:47:00,
2013-01-11 14:52:00,50.7,-99.9,29.52,SSW,199,15.0,15.0,27,0.00,,,-99.99,Misterhouse,2013-01-11 20:52:00,
2013-01-11 14:57:00,50.5,-99.9,29.52,SW,219,13.0,13.0,27,0.00,,,-99.99,Misterhouse,2013-01-11 20:57:00,
2013-01-11 15:02:00,50.5,-99.9,29.52,SSW,213,15.0,16.0,27,0.00,,,-99.99,Misterhouse,2013-01-11 21:02:00,
2013-01-11 15:07:00,50.5,-99.9,29.52,South,183,11.0,15.0,27,0.00,,,-99.99,Misterhouse,2013-01-11 21:07:00,
2013-01-11 15:12:00,50.5,-99.9,29.52,South,189,12.0,13.0,27,0.00,,,-99.99,Misterhouse,2013-01-11 21:12:00,
2013-01-11 15:17:00,50.4,-99.9,29.52,South,180,12.0,14.0,27,0.00,,,-99.99,Misterhouse,2013-01-11 21:17:00,
2013-01-11 15:22:00,50.2,-99.9,29.52,SSW,212,10.0,11.0,28,0.00,,,-99.99,Misterhouse,2013-01-11 21:22:00,
2013-01-11 15:28:00,50.2,-99.9,29.52,South,182,15.0,15.0,28,0.00,,,-99.99,Misterhouse,2013-01-11 21:28:00,
2013-01-11 15:33:00,50.2,-99.9,29.52,SSW,198,12.0,12.0,28,0.00,,,-99.99,Misterhouse,2013-01-11 21:33:00,
2013-01-11 15:38:00,50.2,-99.9,29.52,South,186,12.0,13.0,28,0.00,,,-99.99,Misterhouse,2013-01-11 21:38:00,
2013-01-11 15:43:00,50.2,-99.9,29.52,SSW,197,12.0,12.0,27,0.00,,,-99.99,Misterhouse,2013-01-11 21:43:00,
2013-01-11 15:48:00,50.2,-99.9,29.52,South,190,15.0,15.0,27,0.00,,,-99.99,Misterhouse,2013-01-11 21:48:00,
2013-01-11 15:53:00,50.2,-99.9,29.52,South,185,11.0,11.0,27,0.00,,,-99.99,Misterhouse,2013-01-11 21:53:00,
2013-01-11 15:58:00,50.2,-99.9,29.52,SSW,202,13.0,13.0,27,0.00,,,-99.99,Misterhouse,2013-01-11 21:58:00,
2013-01-11 16:03:00,50.2,-99.9,29.52,SSW,203,13.0,13.0,27,0.00,,,-99.99,Misterhouse,2013-01-11 22:03:00,
2013-01-11 16:08:00,50.2,-99.9,29.52,SSW,200,15.0,18.0,27,0.00,,,-99.99,Misterhouse,2013-01-11 22:08:00,
2013-01-11 16:13:00,50.4,-99.9,29.52,South,175,10.0,16.0,27,0.00,,,-99.99,Misterhouse,2013-01-11 22:13:00,
2013-01-11 16:18:00,50.5,-99.9,29.52,SSW,213,14.0,14.0,27,0.00,,,-99.99,Misterhouse,2013-01-11 22:18:00,
2013-01-11 16:23:00,50.4,-99.9,29.52,South,189,9.0,9.0,27,0.00,,,-99.99,Misterhouse,2013-01-11 22:23:00,
2013-01-11 16:28:00,50.4,-99.9,29.52,SSW,205,8.0,8.0,27,0.00,,,-99.99,Misterhouse,2013-01-11 22:28:00,
2013-01-11 16:33:00,50.4,-99.9,29.52,SW,215,17.0,17.0,27,0.00,,,-99.99,Misterhouse,2013-01-11 22:33:00,
2013-01-11 16:38:00,50.7,-99.9,29.52,SSE,168,12.0,12.0,27,0.00,,,-99.99,Misterhouse,2013-01-11 22:38:00,
2013-01-11 16:43:00,50.7,-99.9,29.52,SSW,194,9.0,11.0,27,0.00,,,-99.99,Misterhouse,2013-01-11 22:43:00,
2013-01-11 16:48:00,50.5,-99.9,29.52,SSW,196,9.0,13.0,27,0.00,,,-99.99,Misterhouse,2013-01-11 22:48:00,
2013-01-11 16:53:00,50.5,-99.9,29.52,South,190,12.0,22.0,27,0.00,,,-99.99,Misterhouse,2013-01-11 22:53:00,
2013-01-11 16:58:00,50.5,-99.9,29.52,SW,234,11.0,11.0,27,0.00,,,-99.99,Misterhouse,2013-01-11 22:58:00,
2013-01-11 17:03:00,50.5,-99.9,29.52,SSW,205,14.0,14.0,27,0.00,,,-99.99,Misterhouse,2013-01-11 23:03:00,
2013-01-11 17:08:00,50.7,-99.9,29.52,South,187,14.0,17.0,27,0.00,,,-99.99,Misterhouse,2013-01-11 23:08:00,
2013-01-11 17:13:00,50.7,-99.9,29.52,South,176,11.0,11.0,27,0.00,,,-99.99,Misterhouse,2013-01-11 23:13:00,
2013-01-11 17:18:00,50.7,-99.9,29.52,SSW,204,13.0,13.0,27,0.00,,,-99.99,Misterhouse,2013-01-11 23:18:00,
2013-01-11 17:23:00,50.7,-99.9,29.52,South,191,11.0,12.0,27,0.00,,,-99.99,Misterhouse,2013-01-11 23:23:00,
2013-01-11 17:28:00,50.5,-99.9,29.52,South,189,12.0,13.0,27,0.00,,,-99.99,Misterhouse,2013-01-11 23:28:00,
2013-01-11 17:33:00,50.5,-99.9,29.52,SSW,208,12.0,12.0,27,0.00,,,-99.99,Misterhouse,2013-01-11 23:33:00,
2013-01-11 17:38:00,50.5,-99.9,29.52,SSW,200,12.0,12.0,27,0.00,,,-99.99,Misterhouse,2013-01-11 23:38:00,
2013-01-11 17:43:00,50.4,-99.9,29.52,WSW,238,7.0,10.0,27,0.00,,,-99.99,Misterhouse,2013-01-11 23:43:00,
2013-01-11 17:49:00,50.4,-99.9,29.55,SSW,207,11.0,11.0,27,0.00,,,-99.99,Misterhouse,2013-01-11 23:49:00,
2013-01-11 17:54:00,50.4,-99.9,29.55,SW,227,8.0,11.0,27,0.00,,,-99.99,Misterhouse,2013-01-11 23:54:00,
2013-01-11 17:59:00,50.4,-99.9,29.55,SW,232,3.0,5.0,27,0.00,,,-99.99,Misterhouse,2013-01-11 23:59:00,
2013-01-11 18:04:00,50.2,-99.9,29.55,WSW,245,7.0,7.0,27,0.00,,,-99.99,Misterhouse,2013-01-12 00:04:00,
2013-01-11 18:09:00,50.2,-99.9,29.55,WSW,256,5.0,5.0,27,0.00,,,-99.99,Misterhouse,2013-01-12 00:09:00,
2013-01-11 18:14:00,49.8,-99.9,29.55,West,272,3.0,3.0,27,0.00,,,-99.99,Misterhouse,2013-01-12 00:14:00,
2013-01-11 18:19:00,49.6,-99.9,29.55,NNW,334,3.0,5.0,28,0.00,,,-99.99,Misterhouse,2013-01-12 00:19:00,
2013-01-11 18:24:00,48.6,-99.9,29.55,NNW,330,4.0,5.0,27,0.00,,,-99.99,Misterhouse,2013-01-12 00:24:00,
2013-01-11 18:29:00,47.5,-99.9,29.55,WNW,291,0.0,0.0,28,0.00,,,-99.99,Misterhouse,2013-01-12 00:29:00,
2013-01-11 18:34:00,47.3,-99.9,29.55,WNW,293,4.0,4.0,29,0.00,,,-99.99,Misterhouse,2013-01-12 00:34:00,
2013-01-11 18:40:00,46.0,-99.9,29.55,North,353,0.0,0.0,29,0.00,,,-99.99,Misterhouse,2013-01-12 00:40:00,
2013-01-11 18:45:00,45.1,-99.9,29.58,WNW,286,0.0,0.0,29,0.00,,,-99.99,Misterhouse,2013-01-12 00:45:00,
2013-01-11 18:50:00,45.1,-99.9,29.58,NNW,342,7.0,8.0,33,0.00,,,-99.99,Misterhouse,2013-01-12 00:50:00,
2013-01-11 18:55:00,44.8,-99.9,29.58,NNW,331,6.0,6.0,35,0.00,,,-99.99,Misterhouse,2013-01-12 00:55:00,
2013-01-11 19:00:00,44.2,-99.9,29.58,NW,320,0.0,2.0,35,0.00,,,-99.99,Misterhouse,2013-01-12 01:00:00,
2013-01-11 19:05:00,43.2,-99.9,29.58,North,357,0.0,4.0,33,0.00,,,-99.99,Misterhouse,2013-01-12 01:05:00,
2013-01-11 19:10:00,42.1,-99.9,29.58,NNW,330,4.0,4.0,34,0.00,,,-99.99,Misterhouse,2013-01-12 01:10:00,
2013-01-11 19:15:00,41.4,-99.9,29.58,WNW,286,0.0,0.0,35,0.00,,,-99.99,Misterhouse,2013-01-12 01:15:00,
2013-01-11 19:20:00,41.0,-99.9,29.58,WNW,297,0.0,0.0,36,0.00,,,-99.99,Misterhouse,2013-01-12 01:20:00,
2013-01-11 19:25:00,40.6,-99.9,29.58,NW,314,0.0,0.0,39,0.00,,,-99.99,Misterhouse,2013-01-12 01:25:00,
2013-01-11 19:30:00,39.9,-99.9,29.61,WNW,298,0.0,0.0,39,0.00,,,-99.99,Misterhouse,2013-01-12 01:30:00,
2013-01-11 19:35:00,39.7,-99.9,29.61,NNW,338,0.0,0.0,39,0.00,,,-99.99,Misterhouse,2013-01-12 01:35:00,
2013-01-11 19:40:00,39.4,-99.9,29.61,NNW,338,0.0,0.0,39,0.00,,,-99.99,Misterhouse,2013-01-12 01:40:00,
2013-01-11 19:45:00,38.8,-99.9,29.61,NNW,333,4.0,6.0,40,0.00,,,-99.99,Misterhouse,2013-01-12 01:45:00,
2013-01-11 19:50:00,38.8,-99.9,29.61,NNW,348,5.0,5.0,42,0.00,,,-99.99,Misterhouse,2013-01-12 01:50:00,
2013-01-11 19:56:00,38.8,-99.9,29.61,NW,319,0.0,0.0,43,0.00,,,-99.99,Misterhouse,2013-01-12 01:56:00,
2013-01-11 20:02:00,38.5,-99.9,29.64,NW,322,0.0,3.0,42,0.00,,,-99.99,Misterhouse,2013-01-12 02:02:00,
2013-01-11 20:07:00,38.1,-99.9,29.64,NNW,331,2.0,0.0,42,0.00,,,-99.99,Misterhouse,2013-01-12 02:07:00,
2013-01-11 20:12:00,38.3,-99.9,29.64,WNW,294,6.0,6.0,45,0.00,,,-99.99,Misterhouse,2013-01-12 02:12:00,
2013-01-11 20:17:00,38.1,-99.9,29.64,NNW,345,11.0,12.0,46,0.00,,,-99.99,Misterhouse,2013-01-12 02:17:00,
2013-01-11 20:22:00,37.6,-99.9,29.64,North,0,7.0,11.0,46,0.00,,,-99.99,Misterhouse,2013-01-12 02:22:00,
2013-01-11 20:27:00,37.2,-99.9,29.64,NNW,329,9.0,9.0,47,0.00,,,-99.99,Misterhouse,2013-01-12 02:27:00,
2013-01-11 20:33:00,36.5,-99.9,29.67,North,353,8.0,8.0,46,0.00,,,-99.99,Misterhouse,2013-01-12 02:33:00,
2013-01-11 20:39:00,35.8,-99.9,29.67,NNW,342,5.0,11.0,45,0.00,,,-99.99,Misterhouse,2013-01-12 02:39:00,
2013-01-11 20:44:00,35.6,-99.9,29.70,WNW,285,11.0,11.0,44,0.00,,,-99.99,Misterhouse,2013-01-12 02:44:00,
2013-01-11 20:50:00,35.2,-99.9,29.70,NW,316,8.0,8.0,45,0.00,,,-99.99,Misterhouse,2013-01-12 02:50:00,
2013-01-11 20:55:00,35.1,-99.9,29.70,NNW,336,9.0,9.0,44,0.00,,,-99.99,Misterhouse,2013-01-12 02:55:00,
2013-01-11 21:00:00,34.9,-99.9,29.73,NNW,342,8.0,8.0,44,0.00,,,-99.99,Misterhouse,2013-01-12 03:00:00,
2013-01-11 21:05:00,34.7,-99.9,29.73,NNE,25,7.0,11.0,44,0.00,,,-99.99,Misterhouse,2013-01-12 03:05:00,
2013-01-11 21:10:00,34.5,-99.9,29.73,North,353,8.0,9.0,42,0.00,,,-99.99,Misterhouse,2013-01-12 03:10:00,
2013-01-11 21:15:00,34.5,-99.9,29.73,NW,324,11.0,13.0,41,0.00,,,-99.99,Misterhouse,2013-01-12 03:15:00,
2013-01-11 21:20:00,34.3,-99.9,29.73,NE,47,8.0,11.0,41,0.00,,,-99.99,Misterhouse,2013-01-12 03:20:00,
2013-01-11 21:26:00,34.0,-99.9,29.73,NW,324,9.0,12.0,41,0.00,,,-99.99,Misterhouse,2013-01-12 03:26:00,
2013-01-11 21:31:00,33.6,-99.9,29.76,NNW,345,11.0,11.0,41,0.00,,,-99.99,Misterhouse,2013-01-12 03:31:00,
2013-01-11 21:37:00,33.1,-99.9,29.76,WNW,295,13.0,13.0,41,0.00,,,-99.99,Misterhouse,2013-01-12 03:37:00,
2013-01-11 21:42:00,32.4,-99.9,29.76,West,263,13.0,14.0,40,0.00,,,-99.99,Misterhouse,2013-01-12 03:42:00,
2013-01-11 21:47:00,32.2,-99.9,29.79,NW,317,10.0,11.0,40,0.00,,,-99.99,Misterhouse,2013-01-12 03:47:00,
2013-01-11 21:52:00,32.2,-99.9,29.79,NNW,342,8.0,12.0,40,0.00,,,-99.99,Misterhouse,2013-01-12 03:52:00,
2013-01-11 21:57:00,32.0,-99.9,29.79,NNW,328,9.0,13.0,40,0.00,,,-99.99,Misterhouse,2013-01-12 03:57:00,
2013-01-11 22:02:00,31.6,-99.9,29.82,NNW,343,9.0,13.0,39,0.00,,,-99.99,Misterhouse,2013-01-12 04:02:00,
2013-01-11 22:08:00,31.5,-99.9,29.82,North,11,11.0,13.0,37,0.00,,,-99.99,Misterhouse,2013-01-12 04:08:00,
2013-01-11 22:14:00,31.3,-99.9,29.82,NW,324,8.0,18.0,37,0.00,,,-99.99,Misterhouse,2013-01-12 04:14:00,
2013-01-11 22:19:00,31.1,-99.9,29.82,North,0,12.0,12.0,39,0.00,,,-99.99,Misterhouse,2013-01-12 04:19:00,
2013-01-11 22:24:00,30.7,-99.9,29.82,NW,304,8.0,13.0,37,0.00,,,-99.99,Misterhouse,2013-01-12 04:24:00,
2013-01-11 22:29:00,30.6,-99.9,29.82,NNW,338,11.0,13.0,36,0.00,,,-99.99,Misterhouse,2013-01-12 04:29:00,
2013-01-11 22:34:00,30.4,-99.9,29.82,North,349,10.0,10.0,35,0.00,,,-99.99,Misterhouse,2013-01-12 04:34:00,
2013-01-11 22:39:00,30.2,-99.9,29.82,WNW,293,8.0,8.0,35,0.00,,,-99.99,Misterhouse,2013-01-12 04:39:00,
2013-01-11 22:44:00,30.0,-99.9,29.85,WNW,295,11.0,11.0,32,0.00,,,-99.99,Misterhouse,2013-01-12 04:44:00,
2013-01-11 22:49:00,30.0,-99.9,29.85,NW,313,11.0,11.0,32,0.00,,,-99.99,Misterhouse,2013-01-12 04:49:00,
2013-01-11 22:54:00,29.5,-99.9,29.85,WSW,254,11.0,17.0,31,0.00,,,-99.99,Misterhouse,2013-01-12 04:54:00,
2013-01-11 22:59:00,29.3,-99.9,29.85,NW,312,12.0,15.0,31,0.00,,,-99.99,Misterhouse,2013-01-12 04:59:00,
2013-01-11 23:01:00,29.1,-99.9,29.85,North,353,12.0,12.0,30,0.00,,,-99.99,Misterhouse,2013-01-12 05:01:00,
2013-01-11 23:03:00,28.9,-99.9,29.85,NNW,331,10.0,11.0,30,0.00,,,-99.99,Misterhouse,2013-01-12 05:03:00,
2013-01-11 23:06:00,28.9,-99.9,29.85,WNW,301,9.0,11.0,31,0.00,,,-99.99,Misterhouse,2013-01-12 05:06:00,
2013-01-11 23:11:00,28.6,-99.9,29.85,WNW,299,10.0,10.0,30,0.00,,,-99.99,Misterhouse,2013-01-12 05:11:00,
2013-01-11 23:16:00,28.6,-99.9,29.88,WSW,240,9.0,10.0,30,0.00,,,-99.99,Misterhouse,2013-01-12 05:16:00,
2013-01-11 23:21:00,28.2,-99.9,29.88,NNW,340,10.0,10.0,28,0.00,,,-99.99,Misterhouse,2013-01-12 05:21:00,
2013-01-11 23:26:00,27.9,-99.9,29.88,North,349,8.0,12.0,31,0.00,,,-99.99,Misterhouse,2013-01-12 05:26:00,
2013-01-11 23:31:00,27.9,-99.9,29.91,WNW,293,8.0,9.0,31,0.00,,,-99.99,Misterhouse,2013-01-12 05:31:00,
2013-01-11 23:36:00,27.9,-99.9,29.91,NW,324,9.0,16.0,31,0.00,,,-99.99,Misterhouse,2013-01-12 05:36:00,
2013-01-11 23:41:00,27.0,-99.9,29.91,NNW,333,14.0,15.0,26,0.00,,,-99.99,Misterhouse,2013-01-12 05:41:00,
2013-01-11 23:46:00,27.0,-99.9,29.94,NNW,342,8.0,8.0,26,0.00,,,-99.99,Misterhouse,2013-01-12 05:46:00,
2013-01-11 23:51:00,26.8,-99.9,29.94,NW,306,6.0,8.0,26,0.00,,,-99.99,Misterhouse,2013-01-12 05:51:00,
2013-01-11 23:56:00,26.4,-99.9,29.94,NNW,336,8.0,8.0,26,0.00,,,-99.99,Misterhouse,2013-01-12 05:56:00,